[[[{"header":{"parameterUnit":"kt","parameterCategory":2,"dx":1,"dy":1,"la1":30.253999710083008,"la2":30.299108505249023,"lo1":-89.0895004272461,"lo2":-89.04439544677734,"nx":28,"ny":28,"refTime":"2022-10-14T21:00:00:Z","depth":0,"parameterNumber":1,"parameterNumberName":"U-component_of_WINDS"},"data":[-2.4682,-2.4777,-2.4803,-2.4924,-2.4968,-2.5055,-2.5096,-2.515,-2.5201,-2.531,-2.5378,-2.5416,-2.5479,-2.5569,-2.5645,-2.5661,-2.5692,-2.5706,-2.5723,-2.5635,-2.5625,-2.5615,-2.5594,-2.5712,-2.5712,-2.581,-2.5811,-2.5812,-2.4614,-2.4658,-2.4729,-2.4816,-2.4878,-2.488,-2.495,-2.5002,-2.5082,-2.5145,-2.5214,-2.5313,-2.5396,-2.5456,-2.5541,-2.5588,-2.5596,-2.5609,-2.5608,-2.5618,-2.5525,-2.5502,-2.5602,-2.5602,-2.5602,-2.5602,-2.5602,-2.5602,-2.4497,-2.4553,-2.462,-2.4698,-2.475,-2.4808,-2.4867,-2.4911,-2.4983,-2.5073,-2.5092,-2.5184,-2.5254,-2.5371,-2.5417,-2.5491,-2.5481,-2.5506,-2.5513,-2.5519,-2.5522,-2.5378,-2.5506,-2.5506,-2.5506,-2.5506,-2.5506,0,-2.442,-2.4438,-2.4508,-2.4587,-2.4645,-2.4709,-2.4773,-2.481,-2.486,-2.4918,-2.5004,-2.5058,-2.5167,-2.5253,-2.5339,-2.5383,-2.5396,-2.5399,-2.5417,-2.541,-2.5392,-2.5404,-2.5252,-2.5396,-2.5395,-2.5395,-2.5394,-2.5394,-2.4306,-2.4367,-2.4452,-2.4498,-2.4539,-2.4613,-2.4663,-2.4703,-2.4755,-2.484,-2.4889,-2.4974,-2.5045,-2.5181,-2.5236,-2.5318,-2.5326,-2.5378,-2.5339,-2.5328,-2.5329,-2.5326,-2.5333,-2.5385,-2.5386,-2.5387,-2.5388,0,-2.4239,-2.4282,-2.4387,-2.4466,-2.4487,-2.4551,-2.4619,-2.4677,-2.4715,-2.4802,-2.4824,-2.4885,-2.497,-2.5017,-2.5124,-2.5147,-2.5256,-2.5259,-2.5231,-2.5235,-2.5288,-2.5283,-2.5448,-2.5472,-2.5349,-2.535,-2.5351,0,-2.416,-2.424,-2.43,-2.4359,-2.445,-2.4487,-2.4577,-2.4618,-2.4679,-2.4748,-2.4767,-2.4831,-2.4881,-2.4953,-2.4986,-2.5083,-2.5103,-2.5126,-2.5135,-2.5126,-2.5123,-2.5158,-2.5153,-2.5149,-2.5148,-2.5147,-2.5146,0,-2.4053,-2.4179,-2.4274,-2.431,-2.4403,-2.4448,-2.4489,-2.4558,-2.4607,-2.4679,-2.4712,-2.4794,-2.4839,-2.4903,-2.4945,-2.4916,-2.5064,-2.5034,-2.5089,-2.5088,-2.5121,-2.5119,-2.525,-2.5145,-2.5145,-2.5145,-2.5145,0,-2.3998,-2.4067,-2.4198,-2.4276,-2.4308,-2.4371,-2.4453,-2.4517,-2.4589,-2.4613,-2.4671,-2.4691,-2.4778,-2.4745,-2.4867,-2.4818,-2.4862,-2.4893,-2.4897,-2.4911,-2.4873,-2.4943,-2.5062,-2.5077,-2.4919,-2.4917,-2.4916,0,-2.3864,-2.4008,-2.4041,-2.4165,-2.4238,-2.4255,-2.4326,-2.4389,-2.4427,-2.4496,-2.454,-2.4619,-2.4604,-2.4636,-2.4689,-2.4739,-2.4802,-2.4731,-2.4835,-2.4838,-2.4816,-2.4925,-2.4932,-2.503,-2.4892,-2.4895,-2.4896,0,-2.3767,-2.3878,-2.3898,-2.3941,-2.4029,-2.4091,-2.4172,-2.4258,-2.4302,-2.437,-2.4441,-2.4553,-2.4547,-2.4599,-2.4625,-2.4678,-2.476,-2.4666,-2.4668,-2.4682,-2.4884,-2.489,-2.4906,-2.4766,-2.4768,-2.4771,-2.4878,0,-2.3675,-2.3753,-2.3807,-2.3902,-2.3957,-2.4037,-2.4086,-2.4137,-2.4155,-2.4194,-2.4299,-2.4364,-2.4455,-2.4485,-2.4504,-2.4611,-2.4601,-2.4594,-2.4568,-2.4638,-2.4675,-2.469,-2.4509,-2.4508,-2.4508,-2.4508,0,0,-2.3538,-2.365,-2.3685,-2.3765,-2.3814,-2.3831,-2.3912,-2.3962,-2.4063,-2.4097,-2.4081,-2.4249,-2.4304,-2.4427,-2.4452,-2.4489,-2.4513,-2.4487,-2.4604,-2.4614,-2.4624,-2.4663,-2.4677,-2.4507,-2.4507,-2.4507,-2.4507,0,-2.3516,-2.3566,-2.3645,-2.3698,-2.3777,-2.3814,-2.3833,-2.3915,-2.3944,-2.4046,-2.4062,-2.4131,-2.4264,-2.4321,-2.4367,-2.4472,-2.4482,-2.4496,-2.4536,-2.4598,-2.4609,-2.4619,-2.4658,-2.4672,-2.4506,-2.4506,-2.4506,0,-2.343,-2.3489,-2.3532,-2.3642,-2.3694,-2.3769,-2.3752,-2.3832,-2.3889,-2.3907,-2.4009,-2.4053,-2.4133,-2.4241,-2.4292,-2.428,-2.445,-2.4406,-2.441,-2.4417,-2.448,-2.4493,-2.4504,-2.435,-2.435,-2.4349,0,0,-2.3404,-2.3476,-2.3553,-2.364,-2.3672,-2.3729,-2.3774,-2.3797,-2.3867,-2.3895,-2.3951,-2.402,-2.4098,-2.4149,-2.4225,-2.4337,-2.4358,-2.4384,-2.4392,-2.4397,-2.4408,-2.4472,-2.4485,-2.4346,-2.4346,-2.4346,0,0,-2.3393,-2.3484,-2.349,-2.3597,-2.3661,-2.3745,-2.3798,-2.3807,-2.388,-2.3877,-2.3922,-2.3943,-2.4045,-2.4088,-2.4044,-2.4217,-2.419,-2.4202,-2.4186,-2.4196,-2.4203,-2.4192,-2.4038,0,0,0,0,0,-2.3395,-2.3472,-2.3476,-2.3502,-2.3642,-2.3742,-2.3761,-2.3798,-2.3778,-2.3818,-2.3867,-2.3874,-2.4073,-2.4035,-2.4061,-2.4111,-2.4309,-2.4316,-2.4322,-2.4328,-2.4338,-2.4346,0,0,0,0,0,0,-2.3405,-2.3435,-2.3474,-2.356,-2.3592,-2.374,-2.3713,-2.3726,-2.3774,-2.3774,-2.3864,-2.3877,-2.3912,-2.4025,-2.4047,-2.4094,-2.4031,-2.4312,-2.4317,-2.4322,-2.4332,-2.434,-2.4347,0,0,0,0,0,-2.3413,-2.3438,-2.3653,-2.356,-2.3587,-2.3656,-2.3711,-2.3721,-2.3759,-2.3836,-2.3848,-2.3783,-2.3912,-2.3934,-2.4038,-2.4083,-2.4015,-2.4024,-2.4315,-2.432,-2.4324,-2.4336,0,0,0,0,0,0,-2.3419,-2.3449,-2.3659,-2.3669,-2.3533,-2.3648,-2.3667,-2.3716,-2.3819,-2.3832,-2.3757,-2.3755,-2.3914,-2.393,-2.3947,-2.4077,-2.4003,-2.4011,-2.4017,-2.4319,-2.4322,-2.4325,0,0,0,0,0,0,-2.3436,-2.3457,-2.3664,-2.3628,-2.3634,-2.3641,-2.3658,-2.3753,-2.382,-2.3734,-2.3736,-2.3755,-2.3889,-2.3928,-2.3941,-2.4087,-2.3993,-2.4001,-2.4007,-2.4011,-2.4322,-2.4324,0,0,0,0,0,0,-2.3446,-2.3464,-2.3626,-2.3631,-2.3636,-2.3751,-2.3726,-2.3868,-2.3786,-2.373,-2.378,-2.3778,-2.3887,-2.3901,-2.3937,-2.4077,-2.4084,-2.3994,-2.3999,-2.4003,-2.4006,0,0,0,0,0,0,0,-2.3453,-2.3321,-2.36,-2.3633,-2.3637,-2.3761,-2.3764,-2.3766,-2.3786,-2.3783,-2.3781,-2.3779,-2.3947,-2.3956,-2.3965,-2.4069,0,0,-2.3993,-2.3997,0,0,0,0,0,0,0,0,-2.3314,-2.3319,-2.36,-2.3602,-2.3604,-2.3761,-2.3764,-2.3766,-2.3785,-2.3783,-2.3782,-2.378,-2.395,-2.3957,-2.3964,0,0,0,0,0,0,0,0,0,0,0,0,0,0,0,-2.36,-2.3602,0,-2.3762,-2.3764,-2.3765,-2.3785,-2.3784,-2.3782,-2.378,-2.3952,-2.3958,-2.3963,0,0,0,0,0,0,0,0,0,0,0,0,0,0,0,0,0,0,0,0,0,0,0,0,0,0,0,0,0,0,0,0,0,0,0,0,0,0,0,0,0,0,0,0,0,0,0,0,0,0,0,0,0,0,0,0,0,0,0,0,0,0,0,0,0,0,0,0,0]}],[{"header":{"parameterUnit":"kt","parameterCategory":2,"dx":1,"dy":1,"la1":30.253999710083008,"la2":30.299108505249023,"lo1":-89.0895004272461,"lo2":-89.04439544677734,"nx":28,"ny":28,"refTime":"2022-10-14T21:00:00:Z","depth":0,"parameterNumber":2,"parameterNumberName":"V-component_of_WINDS"},"data":[2.3914,2.3895,2.3851,2.3807,2.3759,2.372,2.3692,2.3649,2.3603,2.3549,2.3508,2.3458,2.3391,2.3329,2.328,2.3257,2.3239,2.3266,2.3234,2.316,2.3146,2.3133,2.3135,2.3263,2.3264,2.3317,2.3318,2.3318,2.3864,2.3818,2.3783,2.3717,2.3686,2.3634,2.3576,2.3551,2.3517,2.346,2.3417,2.3364,2.3315,2.3235,2.3178,2.3164,2.3134,2.3152,2.3151,2.314,2.3059,2.3063,2.3177,2.3177,2.3177,2.3177,2.3177,2.3177,2.3761,2.3752,2.3687,2.3647,2.3601,2.3557,2.3538,2.3478,2.344,2.3379,2.3329,2.3287,2.3218,2.3125,2.3081,2.3044,2.3015,2.3018,2.3018,2.302,2.3029,2.2955,2.3032,2.3032,2.3031,2.3031,2.303,0,2.3671,2.3635,2.3597,2.3547,2.3515,2.347,2.342,2.3407,2.3309,2.3281,2.3236,2.3201,2.3131,2.308,2.3015,2.2967,2.2904,2.2893,2.2894,2.2917,2.2947,2.2929,2.2798,2.289,2.2889,2.2887,2.2887,2.2886,2.3562,2.3557,2.3466,2.3445,2.3407,2.3375,2.3345,2.3259,2.3231,2.3155,2.3148,2.3097,2.3052,2.2983,2.2906,2.2852,2.282,2.2861,2.2811,2.2835,2.2818,2.2819,2.2816,2.2871,2.2873,2.2875,2.2876,0,2.3505,2.3431,2.3406,2.3315,2.3292,2.3289,2.3209,2.3194,2.3135,2.3105,2.3093,2.2999,2.2954,2.2871,2.2801,2.2758,2.2746,2.2718,2.277,2.2759,2.2785,2.2783,2.2888,2.2896,2.2764,2.2766,2.2767,0,2.3381,2.3377,2.3265,2.3255,2.3246,2.3159,2.3152,2.31,2.304,2.3016,2.2934,2.2912,2.2808,2.2773,2.271,2.2686,2.2673,2.2637,2.262,2.2643,2.2648,2.2623,2.2616,2.2583,2.2583,2.2583,2.2582,0,2.3298,2.3232,2.3216,2.3188,2.3088,2.3082,2.3039,2.2971,2.2941,2.289,2.2869,2.2814,2.2784,2.2741,2.266,2.263,2.2629,2.257,2.2592,2.2594,2.2594,2.2595,2.2711,2.2582,2.2582,2.2581,2.2581,0,2.3185,2.3139,2.3126,2.3041,2.3027,2.3015,2.2956,2.2927,2.286,2.282,2.2778,2.2712,2.2685,2.2633,2.2593,2.2577,2.255,2.2514,2.2514,2.2504,2.2447,2.2521,2.2643,2.2651,2.2498,2.2498,2.2497,0,2.3109,2.3076,2.3002,2.2991,2.2964,2.2874,2.2858,2.2802,2.2748,2.2714,2.2652,2.2614,2.2557,2.2533,2.2525,2.2458,2.248,2.2453,2.2399,2.2399,2.2419,2.2531,2.2569,2.2626,2.2487,2.2488,2.2489,0,2.304,2.292,2.2924,2.2888,2.2801,2.2778,2.2761,2.2705,2.2687,2.2632,2.2613,2.2558,2.2512,2.2473,2.2412,2.2408,2.2462,2.2358,2.2355,2.2378,2.2475,2.2512,2.2522,2.2422,2.2423,2.2424,2.2481,0,2.2883,2.2857,2.2864,2.2788,2.2757,2.2746,2.2659,2.2638,2.2584,2.2526,2.2497,2.2426,2.2366,2.2355,2.2301,2.2319,2.2302,2.2253,2.2193,2.2268,2.2284,2.2291,2.2177,2.2174,2.2172,2.2171,0,0,2.2828,2.2788,2.2706,2.2687,2.2656,2.2561,2.2557,2.2514,2.243,2.2409,2.2376,2.2288,2.2231,2.2204,2.222,2.2196,2.219,2.2167,2.2234,2.2241,2.2248,2.2267,2.2276,2.2167,2.2167,2.2166,2.2165,0,2.2752,2.2703,2.2701,2.2654,2.2582,2.2521,2.2521,2.2431,2.2394,2.2366,2.2284,2.2256,2.2187,2.2137,2.2103,2.2169,2.2107,2.2158,2.2223,2.2218,2.2228,2.2236,2.2258,2.2267,2.2161,2.2161,2.2161,0,2.2667,2.2603,2.2593,2.2519,2.247,2.2444,2.2362,2.2338,2.2316,2.2209,2.2182,2.2131,2.2056,2.2043,2.2034,2.2002,2.2037,2.201,2.202,2.2016,2.2006,2.2018,2.2029,2.1886,2.1885,2.1885,0,0,2.2613,2.2589,2.2491,2.2496,2.2471,2.2381,2.2358,2.2301,2.2239,2.2214,2.2146,2.2086,2.2044,2.2019,2.1975,2.1974,2.1949,2.198,2.1993,2.2004,2.2007,2.2,2.2012,2.1883,2.1882,2.1882,0,0,2.2586,2.2475,2.2432,2.2427,2.2373,2.2274,2.2279,2.2223,2.2176,2.2166,2.2066,2.2045,2.2031,2.1983,2.1965,2.1951,2.1894,2.1897,2.1983,2.1998,2.2011,2.2022,2.1867,0,0,0,0,0,2.2464,2.2489,2.2451,2.2437,2.2341,2.2296,2.2283,2.2202,2.2164,2.217,2.2104,2.204,2.1952,2.1934,2.192,2.194,2.1854,2.1859,2.1864,2.1975,2.1992,2.2006,0,0,0,0,0,0,2.2458,2.2442,2.245,2.2355,2.2332,2.2294,2.2212,2.219,2.2162,2.215,2.2055,2.2037,2.1965,2.1935,2.1924,2.1945,2.187,2.1856,2.1861,2.1864,2.1981,2.1994,2.2006,0,0,0,0,0,2.2453,2.2439,2.2307,2.2354,2.2334,2.2234,2.221,2.2192,2.2168,2.2065,2.2045,2.211,2.1968,2.1953,2.1928,2.1952,2.1877,2.1873,2.1859,2.1862,2.1865,2.1987,0,0,0,0,0,0,2.2449,2.2421,2.2301,2.2292,2.2339,2.2234,2.2215,2.2193,2.2082,2.2063,2.2115,2.2107,2.197,2.1958,2.1947,2.1959,2.1883,2.1879,2.1877,2.1862,2.1864,2.1867,0,0,0,0,0,0,2.2427,2.2414,2.2296,2.2282,2.227,2.2235,2.2218,2.2184,2.2082,2.2138,2.2128,2.2113,2.1986,2.1962,2.1953,2.1903,2.1888,2.1884,2.1881,2.188,2.1864,2.1866,0,0,0,0,0,0,2.242,2.2408,2.2284,2.2275,2.2265,2.2156,2.2203,2.2108,2.2074,2.2144,2.2068,2.2066,2.1992,2.198,2.1957,2.1913,2.1906,2.1888,2.1885,2.1883,2.1882,0,0,0,0,0,0,0,2.2414,2.2512,2.2356,2.2269,2.226,2.2208,2.2206,2.2203,2.2073,2.2071,2.2069,2.2067,2.191,2.1906,2.1901,2.192,0,0,2.1888,2.1886,0,0,0,0,0,0,0,0,2.2515,2.2513,2.2355,2.2354,2.2352,2.2208,2.2206,2.2204,2.2073,2.2071,2.2069,2.2068,2.1909,2.1905,2.1902,0,0,0,0,0,0,0,0,0,0,0,0,0,0,0,2.2355,2.2354,0,2.2208,2.2206,2.2204,2.2073,2.2071,2.207,2.2068,2.1908,2.1905,2.1902,0,0,0,0,0,0,0,0,0,0,0,0,0,0,0,0,0,0,0,0,0,0,0,0,0,0,0,0,0,0,0,0,0,0,0,0,0,0,0,0,0,0,0,0,0,0,0,0,0,0,0,0,0,0,0,0,0,0,0,0,0,0,0,0,0,0,0,0,0]}]]]